| time (UTC) | temp F | wind direction | speed MPH | gust MPH | rain 1hr in | rain 24hr in | rain mn in | humidity % | barometer mb |
| 20260903124118 | 59 | 54 | 7.0 | 11.0 | 0.00 | 0.00 | 0.00 | 76 | 1002.0 |
| 20260903120447 | 59 | 14 | 6.0 | 9.0 | 0.00 | 0.00 | 0.00 | 75 | 1002.1 |
| 20260903114446 | 58 | 35 | 3.0 | 5.0 | 0.00 | 0.00 | 0.00 | 77 | 1002.1 |
| 20260903112446 | 57 | 4 | 5.0 | 8.0 | 0.00 | 0.00 | 0.00 | 79 | 1002.2 |
| 20260903110117 | 58 | 18 | 4.0 | 7.0 | 0.00 | 0.00 | 0.00 | 78 | 1002.2 |
| 20260903104447 | 57 | 38 | 5.0 | 7.0 | 0.00 | 0.00 | 0.00 | 83 | 1002.2 |
| 20260903102446 | 57 | 60 | 6.0 | 9.0 | 0.00 | 0.00 | 0.00 | 83 | 1002.1 |
| 20260903100446 | 58 | 46 | 4.0 | 8.0 | 0.00 | 0.00 | 0.00 | 83 | 1002.2 |
| 20260903094447 | 56 | 51 | 6.0 | 9.0 | 0.00 | 0.00 | 0.00 | 86 | 1002.2 |
| 20260903092447 | 56 | 70 | 4.0 | 5.0 | 0.00 | 0.00 | 0.00 | 85 | 1002.2 |
| 20260903090444 | 56 | 46 | 3.0 | 5.0 | 0.00 | 0.00 | 0.00 | 86 | 1002.2 |
| 20260903084445 | 55 | 42 | 2.0 | 4.0 | 0.00 | 0.00 | 0.00 | 88 | 1002.3 |
| 20260903082446 | 55 | 68 | 4.0 | 5.0 | 0.00 | 0.00 | 0.00 | 88 | 1002.2 |
| 20260903080447 | 55 | 82 | 4.0 | 6.0 | 0.00 | 0.00 | 0.00 | 90 | 1002.2 |
| 20260903074445 | 54 | 32 | 3.0 | 5.0 | 0.00 | 0.00 | 0.00 | 91 | 1002.3 |
| 20260903072444 | 54 | 36 | 5.0 | 7.0 | 0.00 | 0.00 | 0.00 | 92 | 1002.3 |
| 20260903070445 | 53 | 16 | 3.0 | 5.0 | 0.00 | 0.00 | 0.00 | 95 | 1002.4 |
| 20260903064445 | 52 | 18 | 3.0 | 4.0 | 0.00 | 0.00 | 0.00 | 95 | 1002.5 |
| 20260903062443 | 53 | 34 | 4.0 | 6.0 | 0.00 | 0.00 | 0.00 | 95 | 1002.4 |
| 20260903060444 | 53 | 52 | 5.0 | 7.0 | 0.00 | 0.00 | 0.00 | 95 | 1002.3 |
| 20260903054442 | 53 | 42 | 5.0 | 6.0 | 0.00 | 0.00 | 0.00 | 95 | 1002.3 |
| 20260903052444 | 53 | 40 | 5.0 | 7.0 | 0.00 | 0.00 | 0.00 | 96 | 1002.2 |
| 20260903050444 | 53 | 24 | 4.0 | 6.0 | 0.00 | 0.00 | 0.00 | 95 | 1002.2 |
| 20260903044445 | 53 | 8 | 2.0 | 3.0 | 0.00 | 0.00 | 0.00 | 96 | 1002.1 |
| 20260903042445 | 52 | 312 | 3.0 | 4.0 | 0.00 | 0.00 | 0.00 | 97 | 1002.2 |
| 20260903040444 | 52 | 293 | 2.0 | 3.0 | 0.00 | 0.00 | 0.00 | 97 | 1002.2 |
| 20260903034445 | 52 | 360 | 2.0 | 3.0 | 0.00 | 0.00 | 0.00 | 99 | 1002.1 |
| 20260903032445 | 52 | 354 | 2.0 | 3.0 | 0.00 | 0.00 | 0.00 | 99 | 1002.2 |
| 20260903030444 | 52 | 304 | 2.0 | 3.0 | 0.00 | 0.00 | 0.00 | 99 | 1002.1 |
| 20260903024443 | 52 | 359 | 1.0 | 3.0 | 0.00 | 0.00 | 0.00 | 100 | 1002.3 |
| 20260903022446 | 52 | 24 | 2.0 | 3.0 | 0.00 | 0.00 | 0.00 | 99 | 1002.2 |
| 20260903020446 | 52 | 21 | 3.0 | 4.0 | 0.00 | 0.00 | 0.00 | 99 | 1002.2 |
| 20260903014446 | 53 | 7 | 2.0 | 3.0 | 0.00 | 0.00 | 0.00 | 99 | 1002.1 |
| 20260903012445 | 53 | 29 | 2.0 | 3.0 | 0.00 | 0.00 | 0.00 | 98 | 1002.2 |
| 20260903010444 | 53 | 7 | 2.0 | 4.0 | 0.00 | 0.00 | 0.00 | 98 | 1002.2 |
| 20260903004446 | 53 | 16 | 2.0 | 3.0 | 0.00 | 0.00 | 0.00 | 98 | 1002.2 |
| 20260903002446 | 53 | 12 | 2.0 | 4.0 | 0.00 | 0.00 | 0.00 | 98 | 1002.3 |
| 20260903000447 | 53 | 16 | 4.0 | 6.0 | 0.00 | 0.00 | 0.00 | 99 | 1002.3 |
| 20260902234446 | 53 | 26 | 4.0 | 5.0 | 0.00 | 0.00 | 0.00 | 98 | 1002.3 |
| 20260902232444 | 53 | 8 | 2.0 | 3.0 | 0.00 | 0.00 | 0.00 | 98 | 1002.4 |
| 20260902230445 | 53 | 292 | 2.0 | 3.0 | 0.00 | 0.00 | 0.00 | 98 | 1002.4 |
| 20260902224446 | 53 | 282 | 2.0 | 4.0 | 0.00 | 0.00 | 0.00 | 98 | 1002.6 |
| 20260902222444 | 54 | 311 | 2.0 | 4.0 | 0.00 | 0.00 | 0.00 | 98 | 1002.5 |
| 20260902214444 | 54 | 351 | 4.0 | 6.0 | 0.00 | 0.00 | 0.00 | 98 | 1002.3 |
| 20260902212443 | 54 | 346 | 3.0 | 5.0 | 0.00 | 0.00 | 0.00 | 98 | 1002.3 |
| 20260902210443 | 54 | 274 | 2.0 | 4.0 | 0.00 | 0.00 | 0.00 | 99 | 1002.4 |
| 20260902204442 | 54 | 269 | 2.0 | 3.0 | 0.00 | 0.00 | 0.00 | 98 | 1002.4 |
| 20260902202442 | 54 | 268 | 2.0 | 3.0 | 0.00 | 0.00 | 0.00 | 98 | 1002.5 |
| 20260902200112 | 54 | 267 | 3.0 | 3.0 | 0.00 | 0.00 | 0.00 | 99 | 1002.6 |
| 20260902194442 | 54 | 277 | 3.0 | 4.0 | 0.00 | 0.00 | 0.00 | 99 | 1002.5 |
| 20260902192444 | 55 | 271 | 2.0 | 3.0 | 0.00 | 0.00 | 0.00 | 97 | 1002.5 |
| 20260902190443 | 55 | 310 | 2.0 | 3.0 | 0.00 | 0.00 | 0.00 | 97 | 1002.5 |
| 20260902184443 | 55 | 16 | 4.0 | 6.0 | 0.00 | 0.00 | 0.00 | 98 | 1002.5 |
| 20260902180441 | 55 | 25 | 4.0 | 6.0 | 0.00 | 0.00 | 0.00 | 97 | 1002.5 |
| 20260902174442 | 55 | 19 | 5.0 | 7.0 | 0.00 | 0.00 | 0.00 | 96 | 1002.5 |
| 20260902172440 | 56 | 34 | 6.0 | 8.0 | 0.00 | 0.00 | 0.00 | 95 | 1002.6 |
| 20260902170443 | 56 | 13 | 3.0 | 5.0 | 0.00 | 0.00 | 0.00 | 93 | 1002.7 |
| 20260902164442 | 56 | 9 | 4.0 | 5.0 | 0.00 | 0.00 | 0.00 | 93 | 1002.7 |
| 20260902160441 | 56 | 11 | 5.0 | 6.0 | 0.00 | 0.00 | 0.00 | 93 | 1002.7 |
| 20260902154441 | 57 | 15 | 6.0 | 7.0 | 0.00 | 0.00 | 0.00 | 90 | 1002.6 |
| 20260902152440 | 57 | 23 | 5.0 | 7.0 | 0.00 | 0.00 | 0.00 | 89 | 1002.6 |
| 20260902150443 | 57 | 25 | 6.0 | 8.0 | 0.00 | 0.00 | 0.00 | 90 | 1002.6 |
| 20260902144440 | 57 | 20 | 6.0 | 8.0 | 0.00 | 0.00 | 0.00 | 90 | 1002.6 |
| 20260902142442 | 57 | 16 | 4.0 | 7.0 | 0.00 | 0.00 | 0.00 | 91 | 1002.6 |
| 20260902140442 | 58 | 23 | 6.0 | 8.0 | 0.00 | 0.00 | 0.00 | 89 | 1002.6 |
| 20260902134441 | 58 | 38 | 5.0 | 8.0 | 0.00 | 0.00 | 0.00 | 89 | 1002.6 |
| 20260902132440 | 57 | 10 | 4.0 | 6.0 | 0.00 | 0.00 | 0.00 | 91 | 1002.7 |
| 20260902130441 | 57 | 44 | 5.0 | 7.0 | 0.00 | 0.00 | 0.00 | 90 | 1002.8 |